QPF
0.09 0.08 0.05 0.03 0.02 0.00 0.00 0.00 0.00 0.00 0.00 0.00 0.00 0.00 0.00 0.00 0.00 0.00 0.00 0.00 0.00 0.00 0.00 0.00 0.00 0.00 0.00 0.00 0.00 0.00 0.00 0.00 0.01 0.02 0.03 0.02 0.02 0.02 0.02 0.03 0.04 0.04 0.02 0.02
0.07 0.06 0.04 0.02 0.02 0.01 0.00 0.00 0.00 0.00 0.00 0.00 0.00 0.00 0.00 0.00 0.00 0.00 0.00 0.00 0.00 0.00 0.00 0.00 0.00 0.00 0.00 0.00 0.00 0.00 0.00 0.00 0.00 0.01 0.01 0.02 0.02 0.03 0.04 0.06 0.06 0.06 0.05 0.05
0.04 0.04 0.04 0.04 0.03 0.02 0.01 0.00 0.00 0.00 0.00 0.00 0.00 0.00 0.00 0.00 0.00 0.00 0.00 0.00 0.00 0.00 0.00 0.00 0.00 0.00 0.00 0.00 0.00 0.00 0.00 0.00 0.00 0.01 0.02 0.04 0.05 0.05 0.04 0.03 0.02 0.04 0.07 0.09
0.03 0.03 0.05 0.05 0.04 0.03 0.02 0.01 0.00 0.00 0.00 0.00 0.00 0.00 0.00 0.00 0.00 0.00 0.00 0.00 0.00 0.00 0.00 0.00 0.00 0.00 0.00 0.00 0.00 0.00 0.00 0.00 0.00 0.00 0.01 0.02 0.02 0.02 0.02 0.02 0.02 0.05 0.08 0.10
0.03 0.02 0.04 0.05 0.03 0.02 0.01 0.00 0.00 0.00 0.00 0.00 0.00 0.00 0.00 0.00 0.00 0.00 0.00 0.00 0.00 0.00 0.00 0.00 0.00 0.00 0.00 0.00 0.00 0.00 0.00 0.00 0.00 0.00 0.00 0.01 0.01 0.01 0.01 0.02 0.04 0.05 0.06 0.07
0.02 0.01 0.02 0.03 0.02 0.01 0.00 0.00 0.00 0.00 0.00 0.00 0.00 0.00 0.00 0.00 0.00 0.00 0.00 0.00 0.00 0.00 0.00 0.00 0.00 0.00 0.00 0.00 0.00 0.00 0.00 0.00 0.00 0.00 0.00 0.00 0.01 0.01 0.02 0.02 0.03 0.05 0.05 0.05
0.03 0.01 0.01 0.01 0.01 0.01 0.00 0.00 0.00 0.00 0.00 0.00 0.00 0.00 0.00 0.00 0.00 0.00 0.00 0.00 0.00 0.00 0.00 0.00 0.00 0.00 0.00 0.00 0.00 0.00 0.00 0.00 0.00 0.00 0.00 0.00 0.00 0.01 0.01 0.02 0.03 0.04 0.04 0.04
0.02 0.02 0.00 0.00 0.00 0.00 0.00 0.00 0.00 0.00 0.00 0.00 0.00 0.00 0.00 0.00 0.00 0.00 0.00 0.00 0.00 0.00 0.00 0.00 0.00 0.00 0.00 0.00 0.00 0.00 0.00 0.00 0.00 0.00 0.00 0.00 0.00 0.00 0.01 0.01 0.02 0.03 0.04 0.05
0.00 0.00 0.00 0.00 0.00 0.00 0.00 0.00 0.00 0.00 0.00 0.00 0.00 0.00 0.00 0.00 0.00 0.00 0.00 0.00 0.00 0.00 0.00 0.00 0.00 0.00 0.00 0.00 0.00 0.00 0.00 0.00 0.00 0.00 0.00 0.00 0.00 0.00 0.01 0.01 0.02 0.03 0.04 0.05
0.00 0.00 0.00 0.00 0.00 0.00 0.00 0.00 0.00 0.00 0.00 0.00 0.00 0.00 0.00 0.00 0.00 0.00 0.00 0.00 0.00 0.00 0.00 0.00 0.00 0.00 0.00 0.00 0.00 0.00 0.00 0.00 0.00 0.00 0.00 0.00 0.00 0.00 0.01 0.01 0.02 0.03 0.03 0.04
0.00 0.00 0.00 0.00 0.00 0.00 0.00 0.00 0.00 0.00 0.00 0.00 0.00 0.00 0.00 0.00 0.00 0.00 0.00 0.00 0.00 0.00 0.00 0.00 0.00 0.00 0.00 0.00 0.00 0.00 0.00 0.00 0.00 0.00 0.00 0.00 0.00 0.00 0.01 0.01 0.02 0.02 0.03 0.03
0.00 0.00 0.00 0.00 0.00 0.00 0.00 0.00 0.00 0.00 0.00 0.00 0.00 0.00 0.00 0.00 0.00 0.00 0.00 0.00 0.00 0.00 0.00 0.00 0.00 0.00 0.00 0.00 0.00 0.00 0.00 0.00 0.00 0.00 0.00 0.00 0.00 0.01 0.01 0.02 0.02 0.02 0.02 0.02
0.00 0.00 0.00 0.00 0.00 0.00 0.00 0.00 0.00 0.00 0.00 0.00 0.00 0.00 0.00 0.00 0.00 0.00 0.00 0.00 0.00 0.00 0.00 0.00 0.00 0.00 0.00 0.00 0.00 0.00 0.00 0.00 0.00 0.00 0.00 0.01 0.01 0.01 0.02 0.02 0.02 0.02 0.02 0.02
0.00 0.00 0.00 0.00 0.00 0.00 0.00 0.00 0.00 0.00 0.00 0.00 0.00 0.00 0.00 0.00 0.00 0.00 0.00 0.00 0.00 0.00 0.00 0.00 0.00 0.00 0.00 0.00 0.00 0.00 0.01 0.00 0.01 0.01 0.01 0.01 0.02 0.02 0.02 0.02 0.02 0.02 0.02 0.02
0.00 0.00 0.00 0.00 0.00 0.00 0.00 0.00 0.00 0.00 0.00 0.00 0.00 0.00 0.00 0.00 0.00 0.00 0.00 0.00 0.00 0.00 0.00 0.00 0.00 0.00 0.00 0.01 0.01 0.01 0.01 0.01 0.01 0.01 0.02 0.02 0.02 0.02 0.02 0.02 0.02 0.02 0.02 0.01
0.00 0.00 0.00 0.00 0.00 0.00 0.00 0.00 0.00 0.00 0.00 0.00 0.00 0.00 0.00 0.00 0.00 0.00 0.00 0.00 0.00 0.00 0.00 0.00 0.00 0.00 0.01 0.02 0.02 0.02 0.02 0.02 0.02 0.02 0.03 0.02 0.02 0.03 0.03 0.03 0.02 0.02 0.02 0.02
0.00 0.00 0.00 0.00 0.00 0.00 0.00 0.00 0.00 0.00 0.00 0.00 0.00 0.00 0.00 0.00 0.00 0.00 0.00 0.00 0.00 0.00 0.00 0.00 0.00 0.00 0.00 0.01 0.02 0.02 0.02 0.02 0.02 0.03 0.04 0.04 0.03 0.03 0.03 0.04 0.06 0.05 0.05 0.06
0.00 0.00 0.00 0.00 0.00 0.00 0.00 0.00 0.00 0.00 0.00 0.00 0.00 0.00 0.00 0.00 0.00 0.00 0.00 0.00 0.00 0.00 0.00 0.00 0.00 0.00 0.00 0.00 0.00 0.00 0.01 0.02 0.03 0.04 0.05 0.05 0.05 0.06 0.06 0.06 0.08 0.10 0.11 0.12
0.00 0.00 0.00 0.01 0.00 0.00 0.00 0.00 0.00 0.00 0.00 0.00 0.00 0.00 0.00 0.00 0.00 0.00 0.00 0.00 0.00 0.00 0.00 0.00 0.00 0.00 0.00 0.00 0.00 0.00 0.01 0.01 0.01 0.02 0.03 0.03 0.03 0.06 0.09 0.10 0.10 0.13 0.18 0.21
0.00 0.00 0.02 0.02 0.01 0.00 0.00 0.00 0.00 0.01 0.01 0.00 0.00 0.00 0.00 0.00 0.00 0.00 0.00 0.00 0.00 0.00 0.00 0.00 0.00 0.00 0.00 0.00 0.00 0.00 0.01 0.01 0.02 0.03 0.05 0.06 0.07 0.10 0.13 0.15 0.17 0.18 0.17 0.17
0.01 0.02 0.03 0.02 0.01 0.00 0.00 0.00 0.00 0.02 0.02 0.00 0.00 0.00 0.00 0.00 0.00 0.00 0.00 0.00 0.00 0.00 0.00 0.00 0.00 0.00 0.00 0.00 0.00 0.01 0.01 0.03 0.03 0.04 0.06 0.09 0.11 0.13 0.15 0.15 0.15 0.15 0.12 0.09
0.01 0.01 0.01 0.01 0.01 0.00 0.01 0.01 0.01 0.01 0.00 0.00 0.00 0.00 0.00 0.00 0.00 0.00 0.00 0.00 0.00 0.00 0.00 0.00 0.00 0.00 0.00 0.00 0.01 0.01 0.02 0.04 0.05 0.06 0.07 0.08 0.10 0.11 0.12 0.11 0.09 0.07 0.05 0.04
0.01 0.00 0.00 0.00 0.00 0.00 0.01 0.01 0.00 0.00 0.00 0.00 0.00 0.00 0.00 0.00 0.00 0.00 0.00 0.00 0.00 0.00 0.00 0.00 0.00 0.00 0.00 0.01 0.01 0.01 0.02 0.03 0.03 0.04 0.05 0.05 0.05 0.05 0.05 0.05 0.04 0.03 0.02 0.02
0.02 0.02 0.01 0.01 0.00 0.00 0.00 0.00 0.00 0.00 0.00 0.00 0.00 0.00 0.00 0.00 0.00 0.00 0.00 0.00 0.00 0.00 0.00 0.00 0.00 0.00 0.00 0.01 0.01 0.02 0.02 0.02 0.02 0.02 0.02 0.02 0.02 0.02 0.01 0.01 0.01 0.01 0.00 0.00
0.02 0.02 0.02 0.01 0.00 0.00 0.00 0.00 0.00 0.00 0.00 0.00 0.00 0.00 0.00 0.00 0.00 0.00 0.00 0.00 0.00 0.00 0.00 0.00 0.00 0.00 0.00 0.01 0.01 0.01 0.01 0.01 0.01 0.01 0.01 0.01 0.01 0.01 0.00 0.00 0.00 0.00 0.00 0.00
0.00 0.01 0.01 0.01 0.01 0.00 0.00 0.00 0.00 0.00 0.00 0.00 0.00 0.00 0.00 0.00 0.00 0.00 0.00 0.00 0.00 0.00 0.00 0.00 0.00 0.00 0.00 0.00 0.00 0.00 0.00 0.00 0.00 0.00 0.00 0.00 0.00 0.00 0.00 0.00 0.00 0.00 0.00 0.00
MSLP
1011.77 1012.36 1012.90 1013.41 1013.87 1014.29 1014.66 1014.99 1015.24 1015.39 1015.42 1015.33 1015.10 1014.76 1014.34 1013.88 1013.42 1013.00 1012.63 1012.34 1012.10 1011.90 1011.73 1011.56 1011.38 1011.19 1011.01 1010.85 1010.74 1010.70 1010.74 1010.87 1011.08 1011.35 1011.67 1012.01 1012.36 1012.70 1013.05 1013.39 1013.75 1014.14 1014.55 1015.02
1011.93 1012.47 1012.96 1013.43 1013.88 1014.32 1014.76 1015.17 1015.51 1015.75 1015.84 1015.76 1015.51 1015.10 1014.58 1014.00 1013.42 1012.90 1012.45 1012.11 1011.85 1011.65 1011.48 1011.30 1011.11 1010.88 1010.65 1010.43 1010.25 1010.15 1010.15 1010.24 1010.44 1010.70 1011.01 1011.34 1011.67 1011.99 1012.30 1012.60 1012.92 1013.28 1013.69 1014.16
1012.10 1012.58 1013.02 1013.47 1013.93 1014.42 1014.93 1015.44 1015.88 1016.20 1016.35 1016.28 1016.00 1015.52 1014.90 1014.20 1013.51 1012.88 1012.37 1011.98 1011.70 1011.50 1011.33 1011.15 1010.94 1010.68 1010.40 1010.11 1009.87 1009.70 1009.65 1009.71 1009.87 1010.11 1010.41 1010.71 1011.01 1011.29 1011.55 1011.80 1012.08 1012.41 1012.80 1013.27
1012.28 1012.69 1013.10 1013.53 1014.01 1014.57 1015.17 1015.78 1016.33 1016.73 1016.92 1016.86 1016.54 1015.99 1015.26 1014.46 1013.66 1012.95 1012.37 1011.95 1011.66 1011.46 1011.29 1011.12 1010.89 1010.60 1010.26 1009.92 1009.61 1009.38 1009.26 1009.27 1009.39 1009.60 1009.86 1010.13 1010.38 1010.61 1010.82 1011.02 1011.26 1011.55 1011.92 1012.39
1012.47 1012.82 1013.18 1013.61 1014.13 1014.76 1015.46 1016.17 1016.81 1017.29 1017.52 1017.45 1017.08 1016.45 1015.63 1014.73 1013.84 1013.06 1012.43 1011.99 1011.69 1011.50 1011.35 1011.18 1010.94 1010.62 1010.24 1009.84 1009.46 1009.16 1008.98 1008.93 1008.99 1009.15 1009.36 1009.58 1009.79 1009.96 1010.12 1010.28 1010.47 1010.74 1011.09 1011.55
1012.69 1012.97 1013.30 1013.73 1014.30 1014.99 1015.78 1016.59 1017.31 1017.84 1018.09 1018.00 1017.58 1016.87 1015.97 1014.97 1014.00 1013.16 1012.51 1012.05 1011.77 1011.59 1011.46 1011.30 1011.05 1010.72 1010.30 1009.84 1009.40 1009.04 1008.78 1008.66 1008.66 1008.76 1008.91 1009.07 1009.23 1009.36 1009.47 1009.60 1009.76 1010.01 1010.36 1010.82
1012.94 1013.17 1013.47 1013.91 1014.52 1015.28 1016.15 1017.03 1017.81 1018.37 1018.61 1018.49 1018.00 1017.21 1016.22 1015.14 1014.11 1013.23 1012.56 1012.11 1011.84 1011.69 1011.58 1011.43 1011.19 1010.83 1010.39 1009.89 1009.39 1008.96 1008.65 1008.46 1008.39 1008.42 1008.51 1008.63 1008.73 1008.82 1008.91 1009.01 1009.17 1009.41 1009.77 1010.24
1013.21 1013.39 1013.69 1014.15 1014.80 1015.63 1016.56 1017.50 1018.30 1018.85 1019.06 1018.88 1018.31 1017.44 1016.37 1015.22 1014.15 1013.25 1012.57 1012.13 1011.88 1011.76 1011.67 1011.54 1011.30 1010.95 1010.48 1009.95 1009.42 1008.94 1008.57 1008.32 1008.20 1008.18 1008.22 1008.28 1008.35 1008.41 1008.48 1008.57 1008.73 1008.98 1009.35 1009.85
1013.47 1013.64 1013.95 1014.46 1015.16 1016.04 1017.02 1017.98 1018.77 1019.29 1019.43 1019.16 1018.51 1017.56 1016.41 1015.22 1014.12 1013.21 1012.54 1012.12 1011.90 1011.80 1011.74 1011.62 1011.40 1011.04 1010.57 1010.03 1009.47 1008.97 1008.57 1008.28 1008.12 1008.06 1008.06 1008.10 1008.14 1008.18 1008.23 1008.33 1008.49 1008.76 1009.15 1009.66
1013.70 1013.90 1014.25 1014.81 1015.58 1016.51 1017.51 1018.45 1019.20 1019.64 1019.70 1019.34 1018.60 1017.56 1016.37 1015.15 1014.04 1013.14 1012.50 1012.11 1011.92 1011.85 1011.81 1011.71 1011.50 1011.15 1010.69 1010.15 1009.60 1009.09 1008.68 1008.39 1008.21 1008.13 1008.11 1008.12 1008.14 1008.17 1008.22 1008.31 1008.48 1008.76 1009.16 1009.70
1013.86 1014.13 1014.56 1015.20 1016.03 1016.98 1017.98 1018.88 1019.55 1019.88 1019.83 1019.36 1018.54 1017.45 1016.22 1015.01 1013.93 1013.08 1012.49 1012.15 1012.00 1011.96 1011.94 1011.86 1011.66 1011.33 1010.88 1010.36 1009.84 1009.35 1008.96 1008.68 1008.51 1008.42 1008.40 1008.40 1008.41 1008.43 1008.47 1008.56 1008.73 1009.01 1009.41 1009.95
1013.97 1014.33 1014.86 1015.58 1016.45 1017.42 1018.37 1019.18 1019.74 1019.95 1019.77 1019.20 1018.31 1017.19 1015.98 1014.82 1013.81 1013.05 1012.54 1012.26 1012.17 1012.17 1012.18 1012.11 1011.93 1011.61 1011.19 1010.71 1010.23 1009.78 1009.43 1009.18 1009.03 1008.96 1008.94 1008.93 1008.94 1008.95 1008.98 1009.06 1009.22 1009.48 1009.88 1010.40
1014.03 1014.50 1015.13 1015.91 1016.80 1017.73 1018.60 1019.29 1019.70 1019.77 1019.46 1018.80 1017.87 1016.76 1015.62 1014.56 1013.68 1013.04 1012.65 1012.48 1012.47 1012.52 1012.55 1012.50 1012.34 1012.05 1011.66 1011.22 1010.78 1010.38 1010.08 1009.87 1009.76 1009.70 1009.69 1009.69 1009.69 1009.69 1009.71 1009.77 1009.91 1010.16 1010.53 1011.03
1014.08 1014.65 1015.35 1016.15 1017.02 1017.87 1018.60 1019.13 1019.36 1019.26 1018.83 1018.11 1017.18 1016.14 1015.12 1014.22 1013.52 1013.07 1012.84 1012.80 1012.88 1013.00 1013.07 1013.05 1012.90 1012.62 1012.26 1011.86 1011.47 1011.13 1010.87 1010.71 1010.63 1010.60 1010.60 1010.61 1010.60 1010.60 1010.60 1010.66 1010.78 1011.01 1011.36 1011.83
1014.17 1014.79 1015.51 1016.28 1017.05 1017.76 1018.31 1018.63 1018.67 1018.41 1017.88 1017.12 1016.23 1015.31 1014.47 1013.79 1013.33 1013.09 1013.07 1013.19 1013.39 1013.59 1013.70 1013.70 1013.57 1013.31 1012.97 1012.60 1012.25 1011.95 1011.74 1011.62 1011.57 1011.56 1011.58 1011.60 1011.60 1011.60 1011.60 1011.65 1011.77 1011.99 1012.32 1012.76
1014.33 1014.94 1015.60 1016.27 1016.88 1017.39 1017.71 1017.81 1017.64 1017.23 1016.61 1015.86 1015.06 1014.31 1013.70 1013.28 1013.10 1013.12 1013.32 1013.62 1013.95 1014.23 1014.40 1014.42 1014.30 1014.05 1013.73 1013.38 1013.05 1012.79 1012.61 1012.52 1012.50 1012.52 1012.56 1012.59 1012.61 1012.62 1012.65 1012.71 1012.84 1013.06 1013.38 1013.81
1014.54 1015.07 1015.61 1016.10 1016.50 1016.76 1016.84 1016.69 1016.34 1015.80 1015.14 1014.43 1013.77 1013.23 1012.88 1012.75 1012.86 1013.15 1013.58 1014.07 1014.52 1014.88 1015.10 1015.14 1015.02 1014.78 1014.46 1014.13 1013.82 1013.58 1013.43 1013.37 1013.37 1013.41 1013.48 1013.54 1013.58 1013.63 1013.69 1013.78 1013.94 1014.18 1014.51 1014.93
1014.75 1015.15 1015.50 1015.77 1015.92 1015.92 1015.74 1015.38 1014.87 1014.25 1013.59 1012.98 1012.49 1012.18 1012.10 1012.27 1012.66 1013.21 1013.85 1014.49 1015.06 1015.49 1015.74 1015.80 1015.68 1015.44 1015.13 1014.81 1014.52 1014.30 1014.17 1014.13 1014.16 1014.23 1014.32 1014.41 1014.50 1014.60 1014.71 1014.85 1015.05 1015.32 1015.67 1016.09
1014.90 1015.11 1015.25 1015.28 1015.18 1014.94 1014.54 1014.01 1013.40 1012.75 1012.15 1011.67 1011.37 1011.30 1011.49 1011.93 1012.56 1013.32 1014.13 1014.89 1015.54 1016.02 1016.28 1016.35 1016.24 1016.01 1015.71 1015.41 1015.14 1014.95 1014.85 1014.83 1014.89 1014.99 1015.11 1015.25 1015.39 1015.53 1015.70 1015.90 1016.15 1016.45 1016.81 1017.22
1014.90 1014.92 1014.84 1014.65 1014.34 1013.90 1013.35 1012.72 1012.07 1011.46 1010.96 1010.64 1010.55 1010.71 1011.13 1011.78 1012.60 1013.51 1014.43 1015.26 1015.95 1016.44 1016.72 1016.79 1016.69 1016.48 1016.21 1015.94 1015.71 1015.56 1015.50 1015.51 1015.60 1015.73 1015.89 1016.07 1016.25 1016.45 1016.67 1016.92 1017.21 1017.54 1017.90 1018.29
1014.69 1014.53 1014.28 1013.92 1013.45 1012.89 1012.27 1011.63 1011.02 1010.51 1010.15 1010.01 1010.11 1010.46 1011.06 1011.87 1012.80 1013.78 1014.74 1015.59 1016.27 1016.76 1017.03 1017.11 1017.04 1016.87 1016.65 1016.44 1016.27 1016.17 1016.16 1016.22 1016.34 1016.50 1016.70 1016.91 1017.13 1017.37 1017.63 1017.91 1018.22 1018.55 1018.90 1019.25
1014.26 1013.97 1013.60 1013.13 1012.60 1012.01 1011.40 1010.82 1010.31 1009.94 1009.76 1009.79 1010.06 1010.56 1011.28 1012.16 1013.13 1014.11 1015.05 1015.86 1016.50 1016.96 1017.23 1017.33 1017.30 1017.19 1017.05 1016.93 1016.84 1016.82 1016.87 1016.97 1017.13 1017.33 1017.55 1017.78 1018.02 1018.28 1018.56 1018.84 1019.15 1019.46 1019.77 1020.06
1013.66 1013.30 1012.87 1012.38 1011.85 1011.31 1010.79 1010.33 1009.97 1009.77 1009.75 1009.94 1010.34 1010.94 1011.70 1012.58 1013.52 1014.45 1015.31 1016.05 1016.63 1017.06 1017.32 1017.45 1017.49 1017.47 1017.43 1017.41 1017.43 1017.50 1017.62 1017.78 1017.98 1018.19 1018.42 1018.66 1018.91 1019.16 1019.43 1019.70 1019.98 1020.25 1020.50 1020.73
1012.99 1012.62 1012.20 1011.75 1011.29 1010.85 1010.46 1010.16 1009.97 1009.93 1010.06 1010.36 1010.84 1011.47 1012.23 1013.06 1013.91 1014.73 1015.48 1016.13 1016.65 1017.04 1017.32 1017.50 1017.62 1017.71 1017.79 1017.89 1018.02 1018.18 1018.38 1018.59 1018.82 1019.05 1019.28 1019.51 1019.74 1019.97 1020.21 1020.45 1020.68 1020.90 1021.10 1021.25
1012.38 1012.05 1011.69 1011.32 1010.97 1010.66 1010.42 1010.26 1010.22 1010.32 1010.55 1010.93 1011.43 1012.05 1012.74 1013.47 1014.21 1014.91 1015.55 1016.10 1016.56 1016.94 1017.24 1017.48 1017.70 1017.90 1018.11 1018.33 1018.57 1018.83 1019.09 1019.34 1019.59 1019.83 1020.05 1020.26 1020.46 1020.66 1020.86 1021.07 1021.25 1021.42 1021.56 1021.65
1011.95 1011.69 1011.42 1011.16 1010.92 1010.73 1010.61 1010.57 1010.64 1010.82 1011.10 1011.49 1011.98 1012.54 1013.14 1013.76 1014.38 1014.96 1015.49 1015.97 1016.39 1016.77 1017.11 1017.42 1017.74 1018.05 1018.38 1018.71 1019.04 1019.37 1019.68 1019.97 1020.23 1020.46 1020.66 1020.85 1021.03 1021.20 1021.37 1021.54 1021.69 1021.82 1021.92 1021.96
Thickness
5538 5542 5548 5554 5558 5562 5563 5565 5570 5577 5587 5593 5597 5603 5619 5628 5630 5635 5642 5649 5654 5659 5665 5666 5667 5670 5671 5674 5676 5678 5680 5681 5681 5678 5676 5674 5673 5672 5670 5668 5667 5663 5661 5658
5532 5539 5547 5550 5552 5556 5558 5559 5564 5572 5579 5585 5586 5596 5615 5625 5628 5632 5638 5643 5648 5653 5658 5661 5663 5665 5666 5669 5671 5673 5674 5676 5677 5677 5676 5674 5673 5672 5671 5668 5665 5662 5659 5656
5534 5539 5545 5548 5549 5551 5553 5555 5559 5565 5569 5570 5576 5595 5608 5616 5619 5623 5627 5632 5636 5642 5647 5652 5656 5658 5660 5662 5664 5667 5668 5670 5671 5671 5670 5668 5665 5664 5662 5661 5661 5660 5656 5652
5528 5536 5542 5544 5545 5547 5548 5553 5556 5559 5557 5554 5562 5569 5596 5600 5606 5615 5618 5620 5625 5631 5637 5642 5646 5650 5653 5655 5657 5659 5661 5662 5664 5663 5662 5661 5660 5660 5661 5661 5659 5656 5652 5650
5524 5532 5536 5539 5542 5545 5543 5546 5546 5546 5546 5545 5548 5556 5583 5589 5603 5608 5609 5611 5616 5621 5627 5632 5636 5640 5643 5645 5646 5648 5651 5652 5654 5654 5655 5654 5654 5655 5655 5653 5651 5649 5647 5645
5522 5529 5534 5536 5538 5542 5538 5535 5529 5523 5527 5537 5542 5542 5566 5581 5593 5595 5600 5604 5607 5612 5618 5623 5626 5630 5632 5634 5636 5638 5640 5641 5643 5643 5644 5645 5646 5646 5644 5642 5642 5641 5639 5637
5516 5522 5529 5533 5530 5532 5534 5528 5522 5521 5514 5525 5533 5531 5555 5579 5585 5588 5592 5596 5600 5603 5608 5613 5616 5619 5621 5623 5624 5626 5627 5630 5631 5632 5633 5634 5635 5636 5635 5635 5633 5631 5629 5628
5510 5513 5523 5529 5530 5527 5527 5529 5520 5524 5525 5522 5525 5527 5556 5575 5580 5584 5588 5591 5594 5597 5600 5603 5605 5607 5609 5611 5613 5613 5614 5616 5617 5618 5620 5621 5621 5622 5623 5623 5622 5622 5622 5621
5508 5508 5519 5527 5528 5526 5520 5515 5518 5506 5503 5508 5523 5533 5552 5575 5578 5580 5581 5584 5586 5589 5592 5594 5595 5597 5598 5600 5601 5601 5601 5602 5603 5603 5604 5605 5605 5606 5608 5608 5607 5607 5607 5606
5515 5505 5515 5522 5525 5522 5522 5511 5502 5498 5509 5525 5534 5536 5550 5569 5573 5574 5574 5575 5578 5582 5584 5584 5584 5585 5587 5588 5588 5588 5587 5587 5587 5586 5586 5588 5587 5587 5588 5589 5589 5589 5589 5588
5514 5505 5508 5517 5517 5514 5513 5510 5502 5492 5500 5508 5528 5551 5560 5563 5569 5567 5566 5568 5571 5572 5572 5572 5572 5573 5574 5574 5573 5573 5572 5571 5570 5568 5567 5566 5566 5566 5567 5568 5569 5570 5570 5570
5511 5500 5497 5505 5512 5517 5517 5510 5501 5498 5493 5491 5491 5532 5562 5559 5561 5560 5561 5564 5564 5563 5561 5560 5559 5559 5559 5558 5557 5556 5554 5552 5550 5547 5545 5544 5544 5545 5546 5547 5549 5550 5551 5552
5511 5497 5489 5496 5501 5509 5513 5510 5507 5500 5491 5478 5488 5530 5554 5552 5555 5558 5559 5557 5555 5553 5551 5548 5547 5545 5544 5542 5540 5537 5534 5532 5529 5526 5524 5523 5523 5524 5525 5527 5530 5531 5532 5533
5512 5498 5495 5499 5506 5503 5506 5507 5505 5500 5490 5487 5497 5518 5542 5550 5552 5555 5553 5549 5545 5542 5539 5536 5534 5531 5529 5527 5524 5520 5516 5513 5511 5508 5505 5503 5503 5504 5506 5509 5511 5512 5514 5515
5512 5499 5500 5503 5509 5507 5509 5510 5504 5503 5501 5499 5511 5516 5539 5547 5550 5551 5546 5542 5539 5534 5530 5527 5523 5520 5517 5514 5510 5506 5502 5498 5495 5492 5488 5486 5486 5488 5489 5491 5493 5495 5496 5497
5507 5500 5500 5502 5507 5505 5506 5510 5510 5510 5512 5513 5517 5527 5547 5549 5548 5546 5541 5535 5530 5524 5520 5517 5514 5511 5507 5503 5500 5495 5490 5486 5483 5479 5475 5474 5474 5474 5474 5475 5477 5479 5480 5481
5499 5497 5495 5494 5502 5507 5505 5518 5517 5514 5519 5521 5524 5537 5548 5548 5549 5543 5534 5527 5520 5515 5512 5509 5505 5502 5498 5495 5491 5486 5481 5477 5473 5468 5464 5463 5464 5463 5462 5464 5465 5466 5467 5468
5494 5491 5490 5496 5500 5495 5524 5537 5530 5527 5531 5532 5536 5543 5546 5547 5539 5529 5523 5517 5512 5508 5504 5501 5498 5495 5492 5489 5485 5480 5475 5470 5465 5460 5457 5455 5455 5454 5454 5455 5455 5455 5456 5457
5497 5495 5493 5496 5496 5502 5524 5534 5531 5528 5535 5541 5539 5544 5545 5537 5531 5524 5515 5511 5505 5502 5499 5495 5493 5490 5487 5484 5480 5475 5470 5465 5461 5456 5453 5451 5450 5449 5448 5448 5447 5447 5448 5447
5494 5495 5493 5496 5498 5503 5528 5538 5538 5536 5537 5546 5543 5542 5540 5534 5534 5530 5510 5504 5499 5496 5493 5490 5488 5486 5482 5478 5475 5470 5465 5460 5456 5453 5450 5448 5446 5445 5444 5443 5442 5441 5441 5439
5491 5492 5493 5495 5497 5505 5526 5533 5534 5531 5539 5544 5543 5540 5535 5530 5528 5514 5504 5499 5494 5491 5488 5486 5483 5480 5477 5474 5471 5466 5461 5456 5453 5450 5448 5445 5443 5441 5440 5438 5437 5436 5434 5432
5492 5493 5496 5496 5496 5506 5531 5528 5530 5536 5539 5538 5537 5534 5529 5521 5510 5503 5499 5495 5490 5486 5483 5480 5477 5474 5472 5469 5466 5462 5457 5453 5451 5448 5445 5442 5440 5438 5435 5433 5431 5429 5427 5424
5494 5498 5500 5502 5512 5524 5527 5530 5533 5532 5532 5533 5529 5526 5520 5513 5507 5501 5496 5491 5487 5483 5479 5476 5472 5469 5466 5464 5461 5458 5453 5450 5448 5444 5441 5437 5435 5432 5431 5429 5425 5422 5420 5417
5497 5500 5501 5503 5511 5520 5524 5526 5528 5528 5528 5527 5524 5519 5515 5510 5505 5499 5493 5488 5484 5480 5475 5472 5469 5466 5462 5459 5456 5453 5450 5447 5444 5440 5435 5433 5430 5427 5424 5422 5420 5416 5413 5410
5500 5498 5500 5505 5514 5520 5527 5526 5525 5523 5521 5519 5517 5514 5511 5507 5502 5497 5491 5486 5482 5478 5473 5469 5466 5462 5458 5455 5452 5449 5446 5443 5439 5434 5430 5427 5424 5420 5417 5415 5413 5410 5407 5405
5491 5496 5500 5508 5514 5515 5520 5519 5518 5517 5516 5514 5511 5508 5506 5503 5499 5494 5489 5485 5480 5475 5471 5466 5462 5459 5455 5451 5448 5445 5442 5439 5435 5430 5424 5421 5417 5414 5411 5409 5406 5406 5404 5401